Time,TemperatureF,DewpointF,PressureIn,WindDirection,WindDirectionDegrees,WindSpeedMPH,WindSpeedGustMPH,Humidity,HourlyPrecipIn,Conditions,Clouds,dailyrainin,SoftwareType,DateUTC
2013-03-10 00:02:00,41.0,35.0,30.27,North,0,0.0,0.0,79,0.00,,,0.00,,2013-03-10 05:02:00,
2013-03-10 00:11:00,41.0,35.0,30.27,North,0,0.0,0.0,79,0.00,,,0.00,,2013-03-10 05:11:00,
2013-03-10 00:22:00,41.0,35.0,30.27,North,0,0.0,0.0,80,0.00,,,0.00,,2013-03-10 05:22:00,
2013-03-10 00:32:00,40.0,34.0,30.26,North,0,0.0,0.0,80,0.00,,,0.00,,2013-03-10 05:32:00,
2013-03-10 00:42:00,40.0,35.0,30.27,North,0,0.0,0.0,81,0.00,,,0.00,,2013-03-10 05:42:00,
2013-03-10 00:52:00,40.0,35.0,30.27,North,0,0.0,0.0,81,0.00,,,0.00,,2013-03-10 05:52:00,
2013-03-10 01:02:00,40.0,35.0,30.27,North,0,0.0,0.0,81,0.00,,,0.00,,2013-03-10 06:02:00,
2013-03-10 01:11:00,40.0,35.0,30.27,North,0,0.0,0.0,81,0.00,,,0.00,,2013-03-10 06:11:00,
2013-03-10 01:22:00,40.0,35.0,30.27,North,0,0.0,0.0,81,0.00,,,0.00,,2013-03-10 06:22:00,
2013-03-10 01:32:00,39.0,34.0,30.28,North,0,0.0,0.0,82,0.00,,,0.00,,2013-03-10 06:32:00,
2013-03-10 01:42:00,39.0,34.0,30.28,North,0,0.0,0.0,82,0.00,,,0.00,,2013-03-10 06:42:00,
2013-03-10 01:51:00,39.0,34.0,30.28,North,0,0.0,0.0,82,0.00,,,0.00,,2013-03-10 06:51:00,
2013-03-10 03:02:00,39.0,34.0,30.27,North,0,0.0,0.0,82,0.00,,,0.00,,2013-03-10 07:02:00,
2013-03-10 03:11:00,39.0,34.0,30.27,North,0,0.0,0.0,82,0.00,,,0.00,,2013-03-10 07:11:00,
2013-03-10 03:21:00,39.0,34.0,30.27,North,0,0.0,0.0,82,0.00,,,0.00,,2013-03-10 07:21:00,
2013-03-10 03:32:00,38.0,33.0,30.26,North,0,0.0,0.0,82,0.00,,,0.00,,2013-03-10 07:32:00,
2013-03-10 03:42:00,38.0,33.0,30.25,North,0,0.0,0.0,82,0.00,,,0.00,,2013-03-10 07:42:00,
2013-03-10 03:52:00,38.0,33.0,30.25,North,0,0.0,0.0,82,0.00,,,0.00,,2013-03-10 07:52:00,
2013-03-10 04:01:00,38.0,33.0,30.24,North,0,0.0,0.0,82,0.00,,,0.00,,2013-03-10 08:01:00,
2013-03-10 04:11:00,37.0,32.0,30.24,North,0,0.0,0.0,83,0.00,,,0.00,,2013-03-10 08:11:00,
2013-03-10 04:21:00,37.0,32.0,30.24,North,0,0.0,0.0,83,0.00,,,0.00,,2013-03-10 08:21:00,
2013-03-10 04:31:00,37.0,32.0,30.24,North,0,0.0,0.0,83,0.00,,,0.00,,2013-03-10 08:31:00,
2013-03-10 04:42:00,36.0,31.0,30.23,North,0,0.0,0.0,83,0.00,,,0.00,,2013-03-10 08:42:00,
2013-03-10 04:51:00,36.0,31.0,30.23,North,0,0.0,0.0,83,0.00,,,0.00,,2013-03-10 08:51:00,
2013-03-10 05:02:00,36.0,31.0,30.23,North,0,0.0,0.0,83,0.00,,,0.00,,2013-03-10 09:02:00,
2013-03-10 05:11:00,36.0,31.0,30.23,North,0,0.0,0.0,83,0.00,,,0.00,,2013-03-10 09:11:00,
2013-03-10 05:21:00,36.0,31.0,30.23,North,0,0.0,0.0,83,0.00,,,0.00,,2013-03-10 09:21:00,
2013-03-10 05:31:00,36.0,32.0,30.24,North,0,0.0,0.0,84,0.00,,,0.00,,2013-03-10 09:31:00,
2013-03-10 05:42:00,36.0,32.0,30.24,North,0,0.0,0.0,84,0.00,,,0.00,,2013-03-10 09:42:00,
2013-03-10 05:52:00,36.0,32.0,30.24,North,0,0.0,0.0,84,0.00,,,0.00,,2013-03-10 09:52:00,
2013-03-10 06:01:00,35.0,31.0,30.24,North,0,0.0,0.0,84,0.00,,,0.00,,2013-03-10 10:01:00,
2013-03-10 06:11:00,35.0,31.0,30.24,North,0,0.0,0.0,84,0.00,,,0.00,,2013-03-10 10:11:00,
2013-03-10 06:21:00,35.0,31.0,30.25,North,0,0.0,0.0,84,0.00,,,0.00,,2013-03-10 10:21:00,
2013-03-10 06:32:00,35.0,31.0,30.25,North,0,0.0,0.0,84,0.00,,,0.00,,2013-03-10 10:32:00,
2013-03-10 06:42:00,35.0,31.0,30.25,North,0,0.0,0.0,84,0.00,,,0.00,,2013-03-10 10:42:00,
2013-03-10 06:52:00,35.0,31.0,30.25,North,0,0.0,0.0,84,0.00,,,0.00,,2013-03-10 10:52:00,
2013-03-10 07:01:00,34.0,30.0,30.26,North,0,0.0,0.0,84,0.00,,,0.00,,2013-03-10 11:01:00,
2013-03-10 07:12:00,34.0,30.0,30.26,North,0,0.0,0.0,85,0.00,,,0.00,,2013-03-10 11:12:00,
2013-03-10 07:21:00,34.0,30.0,30.26,North,0,0.0,0.0,85,0.00,,,0.00,,2013-03-10 11:21:00,
2013-03-10 07:32:00,34.0,30.0,30.26,North,0,0.0,0.0,84,0.00,,,0.00,,2013-03-10 11:32:00,
2013-03-10 07:42:00,34.0,30.0,30.26,North,0,0.0,0.0,84,0.00,,,0.00,,2013-03-10 11:42:00,
2013-03-10 07:52:00,34.0,30.0,30.26,North,0,0.0,0.0,85,0.00,,,0.00,,2013-03-10 11:52:00,
2013-03-10 08:01:00,34.0,30.0,30.27,North,0,0.0,0.0,85,0.00,,,0.00,,2013-03-10 12:01:00,
2013-03-10 08:11:00,34.0,30.0,30.27,North,0,0.0,0.0,85,0.00,,,0.00,,2013-03-10 12:11:00,
2013-03-10 08:21:00,34.0,30.0,30.27,North,0,0.0,0.0,85,0.00,,,0.00,,2013-03-10 12:21:00,
2013-03-10 08:31:00,34.0,30.0,30.27,North,0,0.0,0.0,85,0.00,,,0.00,,2013-03-10 12:31:00,
2013-03-10 08:42:00,34.0,30.0,30.27,North,0,0.0,0.0,85,0.00,,,0.00,,2013-03-10 12:42:00,
2013-03-10 08:52:00,34.0,30.0,30.27,North,0,0.0,0.0,85,0.00,,,0.00,,2013-03-10 12:52:00,
2013-03-10 09:01:00,35.0,32.0,30.27,North,0,0.0,0.0,87,0.00,,,0.00,,2013-03-10 13:01:00,
2013-03-10 09:11:00,35.0,32.0,30.27,North,0,0.0,0.0,87,0.00,,,0.00,,2013-03-10 13:11:00,
2013-03-10 09:21:00,37.0,34.0,30.27,North,0,0.0,0.0,87,0.00,,,0.00,,2013-03-10 13:21:00,
2013-03-10 09:32:00,38.0,35.0,30.27,North,0,0.0,0.0,88,0.00,,,0.00,,2013-03-10 13:32:00,
2013-03-10 09:41:00,38.0,35.0,30.27,North,0,0.0,0.0,88,0.00,,,0.00,,2013-03-10 13:41:00,
2013-03-10 09:52:00,42.0,39.0,30.27,ESE,106,1.0,2.0,88,0.00,,,0.00,,2013-03-10 13:52:00,
2013-03-10 10:01:00,45.0,40.0,30.27,East,90,2.0,8.0,81,0.00,,,0.00,,2013-03-10 14:01:00,
2013-03-10 10:11:00,45.0,40.0,30.27,East,90,2.0,8.0,81,0.00,,,0.00,,2013-03-10 14:11:00,
2013-03-10 10:21:00,47.0,37.0,30.28,East,88,2.0,4.0,68,0.00,,,0.00,,2013-03-10 14:21:00,
2013-03-10 10:32:00,48.0,33.0,30.28,East,95,2.0,7.0,56,0.00,,,0.00,,2013-03-10 14:32:00,
2013-03-10 10:42:00,48.0,33.0,30.28,East,95,2.0,7.0,56,0.00,,,0.00,,2013-03-10 14:42:00,
2013-03-10 10:51:00,52.0,28.0,30.29,ENE,78,1.0,8.0,40,0.00,,,0.00,,2013-03-10 14:51:00,
2013-03-10 11:01:00,52.0,27.0,30.29,East,81,2.0,8.0,37,0.00,,,0.00,,2013-03-10 15:01:00,
2013-03-10 11:11:00,52.0,27.0,30.29,East,81,2.0,8.0,37,0.00,,,0.00,,2013-03-10 15:11:00,
2013-03-10 11:21:00,54.0,26.0,30.29,East,80,5.0,11.0,33,0.00,,,0.00,,2013-03-10 15:21:00,
2013-03-10 11:32:00,54.0,26.0,30.30,NNE,33,4.0,12.0,34,0.00,,,0.00,,2013-03-10 15:32:00,
2013-03-10 11:42:00,54.0,26.0,30.30,NNE,33,4.0,12.0,34,0.00,,,0.00,,2013-03-10 15:42:00,
2013-03-10 11:52:00,54.0,26.0,30.30,NNE,33,4.0,12.0,34,0.00,,,0.00,,2013-03-10 15:52:00,
2013-03-10 12:01:00,57.0,23.0,30.30,East,80,5.0,12.0,27,0.00,,,0.00,,2013-03-10 16:01:00,
2013-03-10 12:12:00,57.0,23.0,30.30,East,80,5.0,12.0,27,0.00,,,0.00,,2013-03-10 16:12:00,
2013-03-10 12:21:00,58.0,23.0,30.29,ENE,66,4.0,10.0,26,0.00,,,0.00,,2013-03-10 16:21:00,
2013-03-10 12:32:00,58.0,21.0,30.29,ENE,77,4.0,12.0,24,0.00,,,0.00,,2013-03-10 16:32:00,
2013-03-10 12:41:00,58.0,21.0,30.29,ENE,77,4.0,12.0,24,0.00,,,0.00,,2013-03-10 16:41:00,
2013-03-10 12:52:00,58.0,22.0,30.29,ENE,60,4.0,12.0,25,0.00,,,0.00,,2013-03-10 16:52:00,
2013-03-10 13:01:00,58.0,20.0,30.28,East,83,4.0,12.0,23,0.00,,,0.00,,2013-03-10 17:01:00,
2013-03-10 13:11:00,58.0,20.0,30.28,East,83,4.0,12.0,23,0.00,,,0.00,,2013-03-10 17:11:00,
2013-03-10 13:21:00,58.0,18.0,30.28,East,89,4.0,6.0,21,0.00,,,0.00,,2013-03-10 17:21:00,
2013-03-10 13:32:00,58.0,18.0,30.27,ENE,70,4.0,12.0,21,0.00,,,0.00,,2013-03-10 17:32:00,
2013-03-10 13:41:00,58.0,18.0,30.27,ENE,70,4.0,12.0,21,0.00,,,0.00,,2013-03-10 17:41:00,
2013-03-10 13:51:00,60.0,18.0,30.27,East,79,2.0,8.0,19,0.00,,,0.00,,2013-03-10 17:51:00,
2013-03-10 14:01:00,60.0,11.0,30.27,ENE,71,4.0,7.0,14,0.00,,,0.00,,2013-03-10 18:01:00,
2013-03-10 14:11:00,61.0,13.0,30.26,East,82,2.0,11.0,15,0.00,,,0.00,,2013-03-10 18:11:00,
2013-03-10 14:22:00,61.0,13.0,30.26,East,82,2.0,11.0,15,0.00,,,0.00,,2013-03-10 18:22:00,
2013-03-10 14:32:00,62.0,22.0,30.25,ENE,74,1.0,5.0,21,0.00,,,0.00,,2013-03-10 18:32:00,
2013-03-10 14:42:00,62.0,22.0,30.25,ENE,74,1.0,5.0,21,0.00,,,0.00,,2013-03-10 18:42:00,
2013-03-10 14:52:00,62.0,23.0,30.25,ENE,74,1.0,7.0,22,0.00,,,0.00,,2013-03-10 18:52:00,
2013-03-10 15:01:00,62.0,23.0,30.25,ENE,77,2.0,7.0,22,0.00,,,0.00,,2013-03-10 19:01:00,
2013-03-10 15:11:00,62.0,23.0,30.25,ENE,77,2.0,7.0,22,0.00,,,0.00,,2013-03-10 19:11:00,
2013-03-10 15:21:00,62.0,18.0,30.24,East,83,2.0,8.0,18,0.00,,,0.00,,2013-03-10 19:21:00,
2013-03-10 15:32:00,62.0,19.0,30.24,East,98,1.0,6.0,19,0.00,,,0.00,,2013-03-10 19:32:00,
2013-03-10 15:42:00,62.0,19.0,30.24,East,98,1.0,6.0,19,0.00,,,0.00,,2013-03-10 19:42:00,
2013-03-10 15:53:00,63.0,21.0,30.24,East,94,1.0,2.0,20,0.00,,,0.00,,2013-03-10 19:53:00,
2013-03-10 16:02:00,63.0,24.0,30.23,East,79,4.0,10.0,22,0.00,,,0.00,,2013-03-10 20:02:00,
2013-03-10 16:12:00,63.0,24.0,30.23,East,79,4.0,10.0,22,0.00,,,0.00,,2013-03-10 20:12:00,
2013-03-10 16:22:00,62.0,26.0,30.23,ENE,71,2.0,6.0,25,0.00,,,0.00,,2013-03-10 20:22:00,
2013-03-10 16:32:00,63.0,29.0,30.23,North,0,0.0,5.0,28,0.00,,,0.00,,2013-03-10 20:32:00,
2013-03-10 16:43:00,63.0,29.0,30.23,North,0,0.0,5.0,28,0.00,,,0.00,,2013-03-10 20:43:00,
2013-03-10 16:52:00,62.0,29.0,30.24,North,0,0.0,0.0,29,0.00,,,0.00,,2013-03-10 20:52:00,
2013-03-10 17:02:00,62.0,28.0,30.24,North,0,0.0,6.0,27,0.00,,,0.00,,2013-03-10 21:02:00,
2013-03-10 17:12:00,62.0,28.0,30.24,North,0,0.0,6.0,27,0.00,,,0.00,,2013-03-10 21:12:00,
2013-03-10 17:23:00,62.0,26.0,30.24,ENE,76,2.0,7.0,25,0.00,,,0.00,,2013-03-10 21:23:00,
2013-03-10 17:32:00,61.0,29.0,30.23,North,0,0.0,5.0,29,0.00,,,0.00,,2013-03-10 21:32:00,
2013-03-10 17:42:00,61.0,29.0,30.23,North,0,0.0,5.0,29,0.00,,,0.00,,2013-03-10 21:42:00,
2013-03-10 17:52:00,61.0,26.0,30.23,East,90,1.0,7.0,26,0.00,,,0.00,,2013-03-10 21:52:00,
2013-03-10 18:03:00,61.0,28.0,30.23,East,81,1.0,5.0,28,0.00,,,0.00,,2013-03-10 22:03:00,
2013-03-10 18:12:00,61.0,28.0,30.23,East,81,1.0,5.0,28,0.00,,,0.00,,2013-03-10 22:12:00,
2013-03-10 18:22:00,60.0,30.0,30.22,ENE,69,1.0,1.0,32,0.00,,,0.00,,2013-03-10 22:22:00,
2013-03-10 18:32:00,59.0,29.0,30.22,North,0,0.0,6.0,32,0.00,,,0.00,,2013-03-10 22:32:00,
2013-03-10 18:43:00,59.0,29.0,30.22,North,0,0.0,6.0,32,0.00,,,0.00,,2013-03-10 22:43:00,
2013-03-10 18:53:00,58.0,28.0,30.22,ENE,66,1.0,5.0,32,0.00,,,0.00,,2013-03-10 22:53:00,
2013-03-10 19:03:00,57.0,29.0,30.22,ENE,78,1.0,6.0,34,0.00,,,0.00,,2013-03-10 23:03:00,
2013-03-10 19:12:00,57.0,32.0,30.22,ENE,78,1.0,1.0,38,0.00,,,0.00,,2013-03-10 23:12:00,
2013-03-10 19:23:00,57.0,32.0,30.22,ENE,78,1.0,1.0,38,0.00,,,0.00,,2013-03-10 23:23:00,
2013-03-10 19:33:00,56.0,31.0,30.23,North,0,0.0,0.0,39,0.00,,,0.00,,2013-03-10 23:33:00,
2013-03-10 19:42:00,56.0,31.0,30.23,North,0,0.0,0.0,39,0.00,,,0.00,,2013-03-10 23:42:00,
2013-03-10 19:52:00,54.0,35.0,30.23,North,0,0.0,1.0,48,0.00,,,0.00,,2013-03-10 23:52:00,
2013-03-10 20:03:00,54.0,36.0,30.23,North,0,0.0,0.0,51,0.00,,,0.00,,2013-03-11 00:03:00,
2013-03-10 20:13:00,54.0,36.0,30.23,North,0,0.0,0.0,51,0.00,,,0.00,,2013-03-11 00:13:00,
2013-03-10 20:23:00,52.0,36.0,30.23,North,0,0.0,0.0,55,0.00,,,0.00,,2013-03-11 00:23:00,
2013-03-10 20:33:00,51.0,37.0,30.23,North,0,0.0,0.0,59,0.00,,,0.00,,2013-03-11 00:33:00,
2013-03-10 20:43:00,51.0,37.0,30.23,North,0,0.0,0.0,59,0.00,,,0.00,,2013-03-11 00:43:00,
2013-03-10 20:53:00,50.0,37.0,30.23,North,0,0.0,0.0,60,0.00,,,0.00,,2013-03-11 00:53:00,
2013-03-10 21:03:00,49.0,38.0,30.23,North,0,0.0,0.0,65,0.00,,,0.00,,2013-03-11 01:03:00,
2013-03-10 21:13:00,49.0,38.0,30.23,North,0,0.0,0.0,65,0.00,,,0.00,,2013-03-11 01:13:00,
2013-03-10 21:23:00,48.0,37.0,30.23,North,0,0.0,0.0,65,0.00,,,0.00,,2013-03-11 01:23:00,
2013-03-10 21:32:00,48.0,39.0,30.23,North,0,0.0,0.0,70,0.00,,,0.00,,2013-03-11 01:32:00,
2013-03-10 21:42:00,48.0,39.0,30.23,North,0,0.0,0.0,70,0.00,,,0.00,,2013-03-11 01:42:00,
2013-03-10 21:52:00,48.0,39.0,30.23,North,0,0.0,0.0,72,0.00,,,0.00,,2013-03-11 01:52:00,
2013-03-10 22:02:00,48.0,40.0,30.24,North,0,0.0,0.0,74,0.00,,,0.00,,2013-03-11 02:02:00,
2013-03-10 22:12:00,48.0,40.0,30.24,North,0,0.0,0.0,74,0.00,,,0.00,,2013-03-11 02:12:00,
2013-03-10 22:23:00,48.0,40.0,30.24,North,0,0.0,1.0,75,0.00,,,0.00,,2013-03-11 02:23:00,
2013-03-10 22:32:00,48.0,41.0,30.24,North,0,0.0,0.0,77,0.00,,,0.00,,2013-03-11 02:32:00,
2013-03-10 22:42:00,48.0,41.0,30.24,North,0,0.0,0.0,77,0.00,,,0.00,,2013-03-11 02:42:00,
2013-03-10 22:52:00,48.0,41.0,30.24,North,0,0.0,0.0,78,0.00,,,0.00,,2013-03-11 02:52:00,
2013-03-10 23:02:00,48.0,42.0,30.24,North,0,0.0,0.0,79,0.00,,,0.00,,2013-03-11 03:02:00,
2013-03-10 23:12:00,48.0,42.0,30.24,North,0,0.0,0.0,79,0.00,,,0.00,,2013-03-11 03:12:00,
2013-03-10 23:22:00,48.0,42.0,30.24,North,0,0.0,0.0,80,0.00,,,0.00,,2013-03-11 03:22:00,
2013-03-10 23:32:00,48.0,42.0,30.24,North,0,0.0,1.0,81,0.00,,,0.00,,2013-03-11 03:32:00,
2013-03-10 23:42:00,48.0,42.0,30.24,North,0,0.0,1.0,81,0.00,,,0.00,,2013-03-11 03:42:00,
2013-03-10 23:53:00,48.0,43.0,30.23,North,0,0.0,1.0,83,0.00,,,0.00,,2013-03-11 03:53:00,